• In Czech Republic
  • List of Countries
  • For 7 days
  • Water Temperature
  • Satellite Maps
  • Weather Map
  • Weather Widgets
  • user-avatar
    Login

    Hourly Weather Red Deer

    Today, 17 February, Saturday

    Time Temperature Precipitation Wind Pressure Humidity
    00:00 -17°C° 0 mm 3 mps 681 mmHg 92%
    01:00 -18°C° 0 mm 3 mps 682 mmHg 93%
    02:00 -18°C° 0 mm 2 mps 682 mmHg 93%
    03:00 -18°C° 0 mm 2 mps 682 mmHg 92%
    04:00 -18°C° 0 mm 2 mps 682 mmHg 92%
    05:00 -18°C° 0 mm 2 mps 682 mmHg 91%
    06:00 -19°C° 0 mm 2 mps 681 mmHg 90%
    07:00 -17°C° 0 mm 1 mps 681 mmHg 89%
    08:00 -18°C° 0 mm 2 mps 681 mmHg 87%
    09:00 -16°C° 0 mm 2 mps 681 mmHg 86%
    10:00 -15°C° 0 mm 2 mps 681 mmHg 85%
    11:00 -15°C° 0 mm 2 mps 681 mmHg 84%
    12:00 -14°C° 0 mm 2 mps 681 mmHg 83%
    13:00 -14°C° 0 mm 2 mps 681 mmHg 82%
    14:00 -15°C° 0 mm 2 mps 680 mmHg 85%
    15:00 -16°C° 0 mm 2 mps 680 mmHg 87%
    16:00 -16°C° 0 mm 2 mps 679 mmHg 90%
    17:00 -17°C° 0 mm 2 mps 680 mmHg 92%
    18:00 -18°C° 0 mm 2 mps 680 mmHg 93%
    19:00 -17°C° 0 mm 1 mps 680 mmHg 95%
    20:00 -19°C° 0.1 mm 2 mps 680 mmHg 95%
    21:00 -21°C° 0.1 mm 3 mps 681 mmHg 95%
    22:00 -21°C° 0.1 mm 3 mps 681 mmHg 95%
    23:00 -22°C° 0 mm 3 mps 682 mmHg 95%

    Tomorrow, 18 February, Sunday

    Time Temperature Precipitation Wind Pressure Humidity
    00:00 -22°C° 0 mm 3 mps 682 mmHg 95%
    01:00 -23°C° 0 mm 3 mps 682 mmHg 95%
    02:00 -24°C° 0 mm 4 mps 683 mmHg 94%
    03:00 -25°C° 0 mm 4 mps 683 mmHg 94%
    04:00 -25°C° 0 mm 4 mps 683 mmHg 93%
    05:00 -25°C° 0 mm 4 mps 684 mmHg 93%
    06:00 -25°C° 0 mm 4 mps 684 mmHg 92%
    07:00 -26°C° 0 mm 4 mps 684 mmHg 92%
    08:00 -25°C° 0 mm 5 mps 685 mmHg 90%
    09:00 -24°C° 0 mm 5 mps 685 mmHg 88%
    10:00 -23°C° 0 mm 6 mps 685 mmHg 86%
    11:00 -22°C° 0 mm 6 mps 685 mmHg 84%
    12:00 -22°C° 0 mm 6 mps 685 mmHg 82%
    13:00 -21°C° 0 mm 6 mps 685 mmHg 79%
    14:00 -20°C° 0 mm 5 mps 685 mmHg 82%
    15:00 -20°C° 0 mm 4 mps 685 mmHg 84%
    16:00 -19°C° 0 mm 3 mps 685 mmHg 87%
    17:00 -20°C° 0 mm 2 mps 685 mmHg 89%
    18:00 -21°C° 0 mm 2 mps 685 mmHg 91%
    19:00 -24°C° 0 mm 2 mps 685 mmHg 93%
    20:00 -24°C° 0 mm 2 mps 685 mmHg 93%
    21:00 -24°C° 0 mm 2 mps 686 mmHg 93%
    22:00 -25°C° 0 mm 3 mps 686 mmHg 93%
    23:00 -25°C° 0 mm 3 mps 686 mmHg 93%

    Day after tomorrow, 19 February, Monday

    Time Temperature Precipitation Wind Pressure Humidity
    00:00 -25°C° 0 mm 3 mps 685 mmHg 94%
    01:00 -25°C° 0 mm 3 mps 685 mmHg 94%
    02:00 -26°C° 0 mm 3 mps 685 mmHg 93%
    03:00 -26°C° 0 mm 3 mps 685 mmHg 92%
    04:00 -26°C° 0 mm 3 mps 685 mmHg 91%
    05:00 -26°C° 0 mm 3 mps 685 mmHg 90%
    06:00 -27°C° 0 mm 4 mps 685 mmHg 88%
    07:00 -27°C° 0 mm 4 mps 685 mmHg 87%
    08:00 -25°C° 0 mm 4 mps 684 mmHg 84%
    09:00 -23°C° 0 mm 4 mps 684 mmHg 82%
    10:00 -20°C° 0 mm 4 mps 684 mmHg 79%
    11:00 -18°C° 0 mm 4 mps 683 mmHg 77%
    12:00 -17°C° 0 mm 4 mps 683 mmHg 76%
    13:00 -15°C° 0 mm 4 mps 683 mmHg 74%
    14:00 -15°C° 0 mm 3 mps 682 mmHg 77%
    15:00 -15°C° 0 mm 3 mps 682 mmHg 80%
    16:00 -14°C° 0 mm 2 mps 682 mmHg 84%
    17:00 -15°C° 0 mm 2 mps 682 mmHg 84%
    18:00 -16°C° 0 mm 2 mps 683 mmHg 85%
    19:00 -17°C° 0 mm 3 mps 683 mmHg 86%
    20:00 -18°C° 0 mm 3 mps 683 mmHg 86%
    21:00 -18°C° 0 mm 3 mps 683 mmHg 87%
    22:00 -18°C° 0 mm 3 mps 683 mmHg 88%
    23:00 -19°C° 0 mm 3 mps 683 mmHg 88%

    20 February, Tuesday

    Time Temperature Precipitation Wind Pressure Humidity
    00:00 -19°C° 0 mm 3 mps 683 mmHg 87%
    01:00 -21°C° 0 mm 3 mps 683 mmHg 87%
    02:00 -21°C° 0 mm 3 mps 683 mmHg 87%
    03:00 -21°C° 0 mm 3 mps 683 mmHg 86%
    04:00 -22°C° 0 mm 3 mps 684 mmHg 86%
    05:00 -22°C° 0 mm 3 mps 684 mmHg 86%
    06:00 -22°C° 0 mm 3 mps 684 mmHg 85%
    07:00 -23°C° 0 mm 4 mps 684 mmHg 85%
    08:00 -22°C° 0 mm 4 mps 684 mmHg 83%
    09:00 -18°C° 0 mm 3 mps 685 mmHg 81%
    10:00 -16°C° 0 mm 3 mps 685 mmHg 79%
    11:00 -15°C° 0 mm 3 mps 685 mmHg 77%
    12:00 -14°C° 0 mm 3 mps 685 mmHg 76%
    13:00 -13°C° 0 mm 3 mps 684 mmHg 74%
    14:00 -13°C° 0 mm 3 mps 684 mmHg 77%
    15:00 -13°C° 0 mm 2 mps 684 mmHg 79%
    16:00 -12°C° 0 mm 1 mps 684 mmHg 81%
    17:00 -13°C° 0 mm 1 mps 684 mmHg 83%
    18:00 -14°C° 0 mm 1 mps 685 mmHg 84%
    19:00 -16°C° 0 mm 2 mps 685 mmHg 86%
    20:00 -16°C° 0 mm 2 mps 685 mmHg 88%
    21:00 -16°C° 0 mm 2 mps 685 mmHg 90%
    22:00 -16°C° 0 mm 3 mps 685 mmHg 91%
    23:00 -17°C° 0 mm 3 mps 685 mmHg 89%

    21 February, Wednesday

    Time Temperature Precipitation Wind Pressure Humidity
    00:00 -18°C° 0 mm 3 mps 684 mmHg 88%
    01:00 -18°C° 0 mm 3 mps 684 mmHg 86%
    02:00 -19°C° 0 mm 3 mps 683 mmHg 82%
    03:00 -19°C° 0 mm 3 mps 683 mmHg 78%
    04:00 -21°C° 0 mm 3 mps 682 mmHg 74%
    05:00 -21°C° 0 mm 3 mps 681 mmHg 74%
    06:00 -19°C° 0 mm 3 mps 681 mmHg 74%
    07:00 -19°C° 0 mm 3 mps 680 mmHg 74%
    08:00 -17°C° 0 mm 3 mps 680 mmHg 74%
    09:00 -15°C° 0 mm 3 mps 679 mmHg 74%
    10:00 -13°C° 0 mm 3 mps 679 mmHg 75%
    11:00 -12°C° 0.1 mm 3 mps 678 mmHg 78%
    12:00 -9°C° 0.1 mm 3 mps 678 mmHg 80%
    13:00 -8°C° 0.1 mm 3 mps 677 mmHg 83%
    14:00 -8°C° 0.1 mm 3 mps 677 mmHg 85%
    15:00 -8°C° 0.1 mm 3 mps 677 mmHg 86%
    16:00 -7°C° 0.1 mm 3 mps 676 mmHg 88%
    17:00 -8°C° 0.2 mm 5 mps 677 mmHg 88%
    18:00 -9°C° 0.2 mm 6 mps 678 mmHg 88%
    19:00 -9°C° 0.2 mm 7 mps 678 mmHg 89%
    20:00 -9°C° 0.2 mm 7 mps 679 mmHg 89%
    21:00 -11°C° 0.2 mm 7 mps 680 mmHg 89%
    22:00 -10°C° 0.2 mm 6 mps 680 mmHg 89%
    23:00 -11°C° 0.1 mm 6 mps 681 mmHg 89%

    22 February, Thursday

    Time Temperature Precipitation Wind Pressure Humidity
    00:00 -11°C° 0.1 mm 6 mps 681 mmHg 89%
    01:00 -12°C° 0.1 mm 5 mps 682 mmHg 89%
    02:00 -13°C° 0 mm 5 mps 682 mmHg 90%
    03:00 -14°C° 0 mm 4 mps 682 mmHg 91%
    04:00 -15°C° 0 mm 4 mps 683 mmHg 92%
    05:00 -15°C° 0 mm 3 mps 683 mmHg 93%
    06:00 -16°C° 0 mm 3 mps 683 mmHg 93%
    07:00 -16°C° 0 mm 3 mps 683 mmHg 94%
    08:00 -15°C° 0 mm 3 mps 683 mmHg 93%
    09:00 -14°C° 0 mm 3 mps 684 mmHg 92%
    10:00 -12°C° 0 mm 3 mps 684 mmHg 91%
    11:00 -10°C° 0 mm 2 mps 684 mmHg 90%
    12:00 -9°C° 0 mm 2 mps 684 mmHg 88%
    13:00 -8°C° 0 mm 2 mps 684 mmHg 87%
    14:00 -9°C° 0 mm 2 mps 683 mmHg 88%
    15:00 -8°C° 0 mm 1 mps 683 mmHg 89%
    16:00 -8°C° 0 mm 1 mps 683 mmHg 90%
    17:00 -9°C° 0 mm 1 mps 683 mmHg 90%
    18:00 -10°C° 0 mm 1 mps 683 mmHg 91%
    19:00 -11°C° 0 mm 1 mps 683 mmHg 91%
    20:00 -14°C° 0 mm 2 mps 682 mmHg 91%
    21:00 -14°C° 0 mm 2 mps 682 mmHg 91%
    22:00 -14°C° 0 mm 2 mps 682 mmHg 91%
    23:00 -14°C° 0 mm 2 mps 682 mmHg 90%
    Show more